Track FLOCK 4V 14 now! 10-day predictions FLOCK 4V 14 is classified as:
1 46286U 20061Q 21022.75621976 .00001376 00000-0 88041-4 0 9997 2 46286 97.5047 99.1261 0003178 193.3838 166.7308 15.10213066 21359